When you browse on this site, cookies collect data to enhance your experience and personalize the content and advertising you see.
Visit our Privacy Policy to learn more. By continuing to use the site, you agree to this use of cookies and data.
  • En España
  • Lista de países
  • Para 7 días
  • Temperatura del agua
  • El tiempo en el mapa
  • Informadores
  • user-avatar
    Iniciar sesión

    Tiempo cada hora La-Plata

    Hoy, 17 Octubre, Jueves

    Tiempo Temperatura Precipitaciones Viento Presión Humedad
    00:00 +15°C° 0.3 mm 7 mps 762 mmHg 89%
    01:00 +15°C° 0.3 mm 7 mps 762 mmHg 90%
    02:00 +15°C° 0 mm 7 mps 762 mmHg 91%
    03:00 +15°C° 0.6 mm 7 mps 761 mmHg 92%
    04:00 +15°C° 0.6 mm 7 mps 761 mmHg 93%
    05:00 +15°C° 0.6 mm 6 mps 761 mmHg 94%
    06:00 +15°C° 0.6 mm 6 mps 761 mmHg 94%
    07:00 +15°C° 0.6 mm 6 mps 761 mmHg 94%
    08:00 +15°C° 0.6 mm 6 mps 761 mmHg 94%
    09:00 +15°C° 1.4 mm 6 mps 761 mmHg 94%
    10:00 +15°C° 1.4 mm 6 mps 760 mmHg 94%
    11:00 +16°C° 1.4 mm 5 mps 760 mmHg 95%
    12:00 +17°C° 1.1 mm 4 mps 759 mmHg 95%
    13:00 +17°C° 1.1 mm 3 mps 759 mmHg 96%
    14:00 +17°C° 1.1 mm 3 mps 759 mmHg 96%
    15:00 +17°C° 0.7 mm 2 mps 758 mmHg 97%
    16:00 +18°C° 0.7 mm 1 mps 758 mmHg 97%
    17:00 +16°C° 0.7 mm 0 mps 758 mmHg 98%
    18:00 +18°C° 0.1 mm 1 mps 758 mmHg 98%
    19:00 +18°C° 0.1 mm 1 mps 759 mmHg 98%
    20:00 +16°C° 0.1 mm 1 mps 759 mmHg 98%
    21:00 +16°C° 0 mm 3 mps 759 mmHg 97%
    22:00 +15°C° 0 mm 4 mps 759 mmHg 96%
    23:00 +15°C° 0 mm 5 mps 759 mmHg 95%

    Mañana, 18 Octubre, Viernes

    Tiempo Temperatura Precipitaciones Viento Presión Humedad
    00:00 +14°C° 0 mm 5 mps 759 mmHg 95%
    01:00 +13°C° 0 mm 5 mps 759 mmHg 95%
    02:00 +12°C° 0 mm 5 mps 759 mmHg 95%
    03:00 +12°C° 0 mm 4 mps 760 mmHg 94%
    04:00 +11°C° 0 mm 4 mps 760 mmHg 94%
    05:00 +10°C° 0 mm 3 mps 760 mmHg 94%
    06:00 +12°C° 0 mm 4 mps 761 mmHg 90%
    07:00 +13°C° 0 mm 5 mps 761 mmHg 87%
    08:00 +15°C° 0 mm 5 mps 761 mmHg 84%
    09:00 +16°C° 0 mm 5 mps 762 mmHg 77%
    10:00 +19°C° 0 mm 6 mps 762 mmHg 70%
    11:00 +20°C° 0 mm 6 mps 762 mmHg 64%
    12:00 +21°C° 0 mm 6 mps 762 mmHg 61%
    13:00 +21°C° 0 mm 6 mps 762 mmHg 58%
    14:00 +22°C° 0 mm 6 mps 762 mmHg 55%
    15:00 +21°C° 0 mm 5 mps 762 mmHg 58%
    16:00 +21°C° 0 mm 4 mps 762 mmHg 62%
    17:00 +20°C° 0 mm 4 mps 762 mmHg 65%
    18:00 +19°C° 0 mm 3 mps 763 mmHg 68%
    19:00 +17°C° 0 mm 3 mps 763 mmHg 71%
    20:00 +15°C° 0 mm 2 mps 764 mmHg 74%
    21:00 +14°C° 0 mm 2 mps 764 mmHg 76%
    22:00 +13°C° 0 mm 3 mps 765 mmHg 78%
    23:00 +12°C° 0 mm 3 mps 765 mmHg 81%

    Pasado mañana, 19 Octubre, Sábado

    Tiempo Temperatura Precipitaciones Viento Presión Humedad
    00:00 +11°C° 0 mm 3 mps 765 mmHg 81%
    01:00 +10°C° 0 mm 2 mps 765 mmHg 81%
    02:00 +10°C° 0 mm 2 mps 765 mmHg 81%
    03:00 +9°C° 0 mm 2 mps 765 mmHg 81%
    04:00 +9°C° 0 mm 2 mps 765 mmHg 82%
    05:00 +9°C° 0 mm 2 mps 766 mmHg 82%
    06:00 +10°C° 0 mm 2 mps 766 mmHg 77%
    07:00 +13°C° 0 mm 2 mps 766 mmHg 73%
    08:00 +15°C° 0 mm 2 mps 766 mmHg 68%
    09:00 +17°C° 0 mm 2 mps 766 mmHg 64%
    10:00 +18°C° 0 mm 2 mps 766 mmHg 59%
    11:00 +20°C° 0 mm 2 mps 766 mmHg 55%
    12:00 +20°C° 0 mm 2 mps 766 mmHg 55%
    13:00 +20°C° 0 mm 3 mps 766 mmHg 56%
    14:00 +21°C° 0 mm 3 mps 765 mmHg 56%
    15:00 +20°C° 0 mm 3 mps 765 mmHg 61%
    16:00 +19°C° 0 mm 3 mps 765 mmHg 66%
    17:00 +18°C° 0 mm 4 mps 765 mmHg 71%
    18:00 +16°C° 0 mm 3 mps 765 mmHg 72%
    19:00 +14°C° 0 mm 3 mps 765 mmHg 74%
    20:00 +13°C° 0 mm 3 mps 766 mmHg 75%
    21:00 +12°C° 0 mm 3 mps 766 mmHg 77%
    22:00 +12°C° 0 mm 3 mps 765 mmHg 80%
    23:00 +12°C° 0 mm 4 mps 765 mmHg 82%

    20 Octubre, Domingo

    Tiempo Temperatura Precipitaciones Viento Presión Humedad
    00:00 +11°C° 0 mm 3 mps 765 mmHg 84%
    01:00 +11°C° 0 mm 3 mps 764 mmHg 86%
    02:00 +11°C° 0 mm 3 mps 764 mmHg 88%
    03:00 +11°C° 0 mm 3 mps 764 mmHg 88%
    04:00 +10°C° 0 mm 3 mps 764 mmHg 88%
    05:00 +10°C° 0 mm 3 mps 764 mmHg 88%
    06:00 +12°C° 0 mm 3 mps 764 mmHg 84%
    07:00 +13°C° 0 mm 3 mps 765 mmHg 80%
    08:00 +14°C° 0 mm 3 mps 765 mmHg 76%
    09:00 +16°C° 0 mm 3 mps 765 mmHg 71%
    10:00 +17°C° 0 mm 4 mps 765 mmHg 65%
    11:00 +18°C° 0 mm 4 mps 765 mmHg 60%
    12:00 +18°C° 0 mm 3 mps 764 mmHg 57%
    13:00 +19°C° 0 mm 2 mps 764 mmHg 54%
    14:00 +19°C° 0 mm 2 mps 764 mmHg 51%
    15:00 +18°C° 0 mm 2 mps 763 mmHg 57%
    16:00 +17°C° 0 mm 2 mps 763 mmHg 63%
    17:00 +16°C° 0 mm 2 mps 763 mmHg 69%
    18:00 +14°C° 0 mm 3 mps 763 mmHg 74%
    19:00 +13°C° 0 mm 3 mps 763 mmHg 78%
    20:00 +13°C° 0 mm 4 mps 763 mmHg 83%
    21:00 +12°C° 0.1 mm 4 mps 763 mmHg 84%
    22:00 +12°C° 0.1 mm 3 mps 763 mmHg 85%
    23:00 +12°C° 0.1 mm 3 mps 763 mmHg 86%

    21 Octubre, Lunes

    Tiempo Temperatura Precipitaciones Viento Presión Humedad
    00:00 +12°C° 0.2 mm 3 mps 763 mmHg 87%
    01:00 +12°C° 0.2 mm 3 mps 762 mmHg 87%
    02:00 +13°C° 0.2 mm 3 mps 762 mmHg 88%
    03:00 +13°C° 0.2 mm 2 mps 762 mmHg 88%
    04:00 +13°C° 0.2 mm 2 mps 762 mmHg 89%
    05:00 +13°C° 0.2 mm 2 mps 762 mmHg 89%
    06:00 +14°C° 0.3 mm 2 mps 762 mmHg 88%
    07:00 +14°C° 0.3 mm 1 mps 762 mmHg 87%
    08:00 +14°C° 0.3 mm 1 mps 762 mmHg 86%
    09:00 +14°C° 0.2 mm 1 mps 762 mmHg 85%
    10:00 +14°C° 0.2 mm 2 mps 762 mmHg 84%
    11:00 +13°C° 0.2 mm 2 mps 763 mmHg 83%
    12:00 +13°C° 0.2 mm 2 mps 762 mmHg 84%
    13:00 +13°C° 0.2 mm 2 mps 762 mmHg 85%
    14:00 +13°C° 0.2 mm 2 mps 762 mmHg 86%
    15:00 +14°C° 0 mm 1 mps 762 mmHg 83%
    16:00 +15°C° 0 mm 1 mps 762 mmHg 80%
    17:00 +15°C° 0 mm 1 mps 761 mmHg 76%
    18:00 +14°C° 0 mm 1 mps 761 mmHg 79%
    19:00 +13°C° 0 mm 1 mps 762 mmHg 81%
    20:00 +11°C° 0 mm 0 mps 762 mmHg 84%
    21:00 +12°C° 0 mm 1 mps 762 mmHg 83%
    22:00 +13°C° 0 mm 1 mps 762 mmHg 82%
    23:00 +13°C° 0 mm 2 mps 763 mmHg 82%

    22 Octubre, Martes

    Tiempo Temperatura Precipitaciones Viento Presión Humedad
    00:00 +13°C° 0.1 mm 2 mps 762 mmHg 84%
    01:00 +11°C° 0.1 mm 3 mps 762 mmHg 86%
    02:00 +11°C° 0.1 mm 3 mps 762 mmHg 88%
    03:00 +11°C° 0.1 mm 3 mps 762 mmHg 87%
    04:00 +10°C° 0.1 mm 3 mps 763 mmHg 87%
    05:00 +10°C° 0.1 mm 3 mps 763 mmHg 86%
    06:00 +11°C° 0 mm 3 mps 763 mmHg 79%
    07:00 +11°C° 0 mm 3 mps 763 mmHg 72%
    08:00 +12°C° 0 mm 3 mps 763 mmHg 65%
    09:00 +14°C° 0 mm 4 mps 763 mmHg 59%
    10:00 +17°C° 0 mm 4 mps 763 mmHg 52%
    11:00 +18°C° 0 mm 4 mps 763 mmHg 45%
    12:00 +19°C° 0 mm 3 mps 763 mmHg 44%
    13:00 +19°C° 0 mm 3 mps 763 mmHg 43%
    14:00 +20°C° 0 mm 3 mps 762 mmHg 42%
    15:00 +19°C° 0 mm 3 mps 762 mmHg 47%
    16:00 +19°C° 0 mm 2 mps 762 mmHg 51%
    17:00 +18°C° 0 mm 2 mps 762 mmHg 56%
    18:00 +17°C° 0 mm 2 mps 762 mmHg 59%
    19:00 +15°C° 0 mm 1 mps 762 mmHg 61%
    20:00 +13°C° 0 mm 1 mps 762 mmHg 64%
    21:00 +13°C° 0 mm 1 mps 762 mmHg 67%
    22:00 +12°C° 0 mm 1 mps 762 mmHg 69%
    23:00 +12°C° 0 mm 2 mps 762 mmHg 72%
    Mostrar más